Weather in Tevzana

Russia / Chechen Republic     42°58′34″N   45°54′39″E
temp.,
°C
wind,
m/s
gust,
m/s
humid.,
%
clouds,
%
prec.,
mm/h
press.,
hPa
HPBL,
m
27 january, wed
wed2700:00+2sse224348 0.0 102124
03:00+3sse223926 0.0 101927
06:00+3sse22419 0.0 101829
09:00+6sse124022 0.0 101641
12:00+9ene124097 0.0 1014130
15:00+9ene024577 0.0 1012155
18:00+5sse23545 0.0 101161
21:00+5s234633 0.0 101060
28 january, thu
thu2800:00+5s234682 0.0 101062
03:00+5s334359 0.0 100859
06:00+5s22432 0.0 100742
09:00+8s233946 0.0 100672
12:00+13sse1339100 0.0 1004414
15:00+12ssw1543100 0.0 1004345
18:00+4w1171100 0.0 100749
21:00+3wsw397650 0.0 1010527
29 january, fri
fri2900:00+3wnw248572 0.0 1012279
03:00+1sw139485 0.4 1011173
06:00+1ssw1291100 0.4 101288
09:00+1nnw1290100 1.2 1014208
12:00+1nne1293100 0.6 1012201
15:00+2nne127494 0.8 1012551
18:00+1n128096 0.3 1015475
21:00−1e118595 0.4 101660
30 january, sat
sat3000:00−1ese0184100 0.0 101522
03:00−2sw1185100 0.0 101521
06:00−2sw118588 0.0 101421
09:00+1n017344 0.0 1014117
12:00+4n21650 0.0 1012352
15:00+4n22680 0.0 1011374
18:000sw11810 0.0 101222
21:00+1sse11770 0.0 101224
31 january, sun
sun3100:00+1s12690 0.0 101130
03:00+1s22680 0.0 100938
06:00+2sse33580 0.0 100949
09:00+5sse12490 0.0 100965
12:00+9nne124257 0.0 1008202
15:00+6nw116075 0.0 1009192
18:00+3wnw1174100 0.0 101323
21:00+2sw117583 0.0 101722